When you browse on this site, cookies collect data to enhance your experience and personalize the content and advertising you see.
Visit our Privacy Policy to learn more. By continuing to use the site, you agree to this use of cookies and data.
  • En España
  • Lista de países
  • Para 7 días
  • Temperatura del agua
  • Mapa Satelital
  • El tiempo en el mapa
  • Informadores
  • user-avatar
    Iniciar sesión

    Tiempo cada hora Karelskoe Zaruche

    Hoy, 22 Enero, Martes

    Tiempo Temperatura Precipitaciones Viento Presión Humedad
    00:00 -20°C° 0 mm 2 mps 742 mmHg 96%
    01:00 -21°C° 0 mm 2 mps 742 mmHg 96%
    02:00 -23°C° 0 mm 2 mps 742 mmHg 98%
    03:00 -23°C° 0 mm 2 mps 743 mmHg 98%
    04:00 -23°C° 0 mm 2 mps 743 mmHg 97%
    05:00 -21°C° 0 mm 2 mps 743 mmHg 97%
    06:00 -21°C° 0 mm 2 mps 743 mmHg 97%
    07:00 -21°C° 0 mm 2 mps 744 mmHg 97%
    08:00 -20°C° 0 mm 2 mps 744 mmHg 97%
    09:00 -19°C° 0 mm 2 mps 745 mmHg 96%
    10:00 -18°C° 0 mm 3 mps 745 mmHg 94%
    11:00 -17°C° 0 mm 3 mps 745 mmHg 93%
    12:00 -17°C° 0 mm 3 mps 745 mmHg 93%
    13:00 -16°C° 0 mm 3 mps 745 mmHg 93%
    14:00 -15°C° 0 mm 2 mps 746 mmHg 93%
    15:00 -17°C° 0 mm 3 mps 746 mmHg 94%
    16:00 -17°C° 0 mm 3 mps 746 mmHg 94%
    17:00 -18°C° 0 mm 3 mps 746 mmHg 95%
    18:00 -18°C° 0.1 mm 3 mps 746 mmHg 95%
    19:00 -18°C° 0.1 mm 3 mps 746 mmHg 95%
    20:00 -18°C° 0.1 mm 3 mps 746 mmHg 94%
    21:00 -19°C° 0 mm 3 mps 746 mmHg 95%
    22:00 -19°C° 0 mm 3 mps 746 mmHg 96%
    23:00 -19°C° 0 mm 2 mps 746 mmHg 96%

    Mañana, 23 Enero, Miércoles

    Tiempo Temperatura Precipitaciones Viento Presión Humedad
    00:00 -20°C° 0 mm 2 mps 746 mmHg 97%
    01:00 -21°C° 0 mm 2 mps 746 mmHg 97%
    02:00 -21°C° 0 mm 2 mps 747 mmHg 98%
    03:00 -23°C° 0 mm 2 mps 747 mmHg 97%
    04:00 -23°C° 0 mm 2 mps 747 mmHg 97%
    05:00 -23°C° 0 mm 2 mps 747 mmHg 97%
    06:00 -24°C° 0 mm 2 mps 747 mmHg 96%
    07:00 -24°C° 0 mm 2 mps 747 mmHg 96%
    08:00 -24°C° 0 mm 2 mps 748 mmHg 95%
    09:00 -23°C° 0 mm 2 mps 748 mmHg 93%
    10:00 -20°C° 0 mm 2 mps 748 mmHg 91%
    11:00 -19°C° 0 mm 2 mps 748 mmHg 88%
    12:00 -18°C° 0 mm 2 mps 748 mmHg 89%
    13:00 -18°C° 0 mm 2 mps 747 mmHg 89%
    14:00 -18°C° 0 mm 2 mps 747 mmHg 90%
    15:00 -18°C° 0 mm 2 mps 747 mmHg 92%
    16:00 -19°C° 0 mm 2 mps 747 mmHg 93%
    17:00 -22°C° 0 mm 3 mps 747 mmHg 95%
    18:00 -21°C° 0 mm 3 mps 746 mmHg 95%
    19:00 -21°C° 0 mm 3 mps 746 mmHg 95%
    20:00 -21°C° 0 mm 3 mps 746 mmHg 95%
    21:00 -19°C° 0 mm 3 mps 746 mmHg 95%
    22:00 -18°C° 0 mm 3 mps 746 mmHg 95%
    23:00 -17°C° 0 mm 3 mps 746 mmHg 95%

    Pasado mañana, 24 Enero, Jueves

    Tiempo Temperatura Precipitaciones Viento Presión Humedad
    00:00 -16°C° 0.1 mm 3 mps 746 mmHg 94%
    01:00 -15°C° 0.1 mm 3 mps 745 mmHg 93%
    02:00 -14°C° 0.1 mm 3 mps 745 mmHg 93%
    03:00 -14°C° 0 mm 3 mps 745 mmHg 92%
    04:00 -15°C° 0 mm 4 mps 745 mmHg 92%
    05:00 -15°C° 0 mm 4 mps 744 mmHg 92%
    06:00 -15°C° 0.1 mm 4 mps 744 mmHg 93%
    07:00 -16°C° 0.1 mm 4 mps 744 mmHg 93%
    08:00 -16°C° 0.1 mm 4 mps 744 mmHg 94%
    09:00 -14°C° 0.2 mm 3 mps 744 mmHg 94%
    10:00 -14°C° 0.2 mm 3 mps 744 mmHg 93%
    11:00 -14°C° 0.2 mm 3 mps 744 mmHg 93%
    12:00 -13°C° 0.1 mm 3 mps 744 mmHg 92%
    13:00 -12°C° 0.1 mm 3 mps 745 mmHg 92%
    14:00 -9°C° 0.1 mm 2 mps 745 mmHg 91%
    15:00 -10°C° 0 mm 2 mps 745 mmHg 92%
    16:00 -12°C° 0 mm 2 mps 746 mmHg 93%
    17:00 -13°C° 0 mm 2 mps 746 mmHg 95%
    18:00 -15°C° 0 mm 2 mps 747 mmHg 95%
    19:00 -17°C° 0 mm 2 mps 747 mmHg 96%
    20:00 -18°C° 0 mm 2 mps 747 mmHg 97%
    21:00 -17°C° 0 mm 1 mps 748 mmHg 97%
    22:00 -18°C° 0 mm 1 mps 748 mmHg 98%
    23:00 -19°C° 0 mm 1 mps 749 mmHg 98%

    25 Enero, Viernes

    Tiempo Temperatura Precipitaciones Viento Presión Humedad
    00:00 -20°C° 0 mm 1 mps 749 mmHg 98%
    01:00 -20°C° 0 mm 1 mps 750 mmHg 98%
    02:00 -21°C° 0 mm 1 mps 750 mmHg 98%
    03:00 -21°C° 0 mm 1 mps 750 mmHg 97%
    04:00 -21°C° 0 mm 1 mps 751 mmHg 97%
    05:00 -21°C° 0 mm 1 mps 751 mmHg 97%
    06:00 -21°C° 0 mm 1 mps 751 mmHg 97%
    07:00 -21°C° 0 mm 0 mps 751 mmHg 97%
    08:00 -22°C° 0 mm 0 mps 752 mmHg 97%
    09:00 -20°C° 0 mm 0 mps 752 mmHg 95%
    10:00 -18°C° 0 mm 0 mps 752 mmHg 93%
    11:00 -17°C° 0 mm 0 mps 753 mmHg 91%
    12:00 -16°C° 0 mm 0 mps 753 mmHg 91%
    13:00 -16°C° 0 mm 0 mps 753 mmHg 92%
    14:00 -15°C° 0 mm 0 mps 753 mmHg 93%
    15:00 -17°C° 0 mm 0 mps 753 mmHg 93%
    16:00 -18°C° 0 mm 0 mps 753 mmHg 94%
    17:00 -19°C° 0 mm 1 mps 753 mmHg 95%
    18:00 -19°C° 0 mm 1 mps 753 mmHg 96%
    19:00 -20°C° 0 mm 1 mps 753 mmHg 96%
    20:00 -20°C° 0 mm 1 mps 753 mmHg 96%
    21:00 -20°C° 0 mm 1 mps 753 mmHg 97%
    22:00 -20°C° 0 mm 1 mps 753 mmHg 97%
    23:00 -20°C° 0 mm 1 mps 753 mmHg 97%

    26 Enero, Sábado

    Tiempo Temperatura Precipitaciones Viento Presión Humedad
    00:00 -20°C° 0 mm 1 mps 753 mmHg 97%
    01:00 -20°C° 0 mm 1 mps 753 mmHg 97%
    02:00 -20°C° 0 mm 1 mps 753 mmHg 97%
    03:00 -20°C° 0 mm 1 mps 753 mmHg 96%
    04:00 -20°C° 0 mm 1 mps 753 mmHg 96%
    05:00 -20°C° 0 mm 1 mps 752 mmHg 96%
    06:00 -20°C° 0 mm 1 mps 753 mmHg 96%
    07:00 -20°C° 0 mm 1 mps 753 mmHg 95%
    08:00 -21°C° 0 mm 1 mps 753 mmHg 95%
    09:00 -19°C° 0 mm 1 mps 753 mmHg 94%
    10:00 -18°C° 0 mm 1 mps 753 mmHg 93%
    11:00 -17°C° 0 mm 1 mps 753 mmHg 92%
    12:00 -17°C° 0 mm 1 mps 753 mmHg 92%
    13:00 -16°C° 0 mm 1 mps 753 mmHg 93%
    14:00 -16°C° 0 mm 1 mps 752 mmHg 93%
    15:00 -19°C° 0 mm 2 mps 752 mmHg 95%
    16:00 -20°C° 0 mm 2 mps 752 mmHg 96%
    17:00 -23°C° 0 mm 2 mps 752 mmHg 97%
    18:00 -23°C° 0 mm 2 mps 752 mmHg 98%
    19:00 -24°C° 0 mm 2 mps 752 mmHg 98%
    20:00 -25°C° 0 mm 2 mps 752 mmHg 98%
    21:00 -25°C° 0 mm 2 mps 752 mmHg 98%
    22:00 -25°C° 0 mm 2 mps 752 mmHg 98%
    23:00 -25°C° 0 mm 2 mps 752 mmHg 98%

    27 Enero, Domingo

    Tiempo Temperatura Precipitaciones Viento Presión Humedad
    00:00 -26°C° 0 mm 2 mps 752 mmHg 98%
    01:00 -26°C° 0 mm 2 mps 752 mmHg 98%
    02:00 -26°C° 0 mm 2 mps 752 mmHg 98%
    03:00 -26°C° 0 mm 2 mps 752 mmHg 98%
    04:00 -27°C° 0 mm 2 mps 752 mmHg 98%
    05:00 -27°C° 0 mm 2 mps 752 mmHg 98%
    06:00 -27°C° 0 mm 2 mps 752 mmHg 98%
    07:00 -28°C° 0 mm 2 mps 752 mmHg 98%
    08:00 -28°C° 0 mm 2 mps 752 mmHg 98%
    09:00 -27°C° 0 mm 2 mps 753 mmHg 97%
    10:00 -25°C° 0 mm 2 mps 753 mmHg 96%
    11:00 -24°C° 0 mm 2 mps 753 mmHg 95%
    12:00 -24°C° 0 mm 2 mps 753 mmHg 94%
    13:00 -23°C° 0 mm 2 mps 753 mmHg 94%
    14:00 -23°C° 0 mm 2 mps 753 mmHg 94%
    15:00 -24°C° 0 mm 2 mps 753 mmHg 95%
    16:00 -26°C° 0 mm 2 mps 753 mmHg 96%
    17:00 -27°C° 0 mm 2 mps 753 mmHg 97%
    18:00 -28°C° 0 mm 2 mps 753 mmHg 97%
    19:00 -28°C° 0 mm 2 mps 753 mmHg 97%
    20:00 -29°C° 0 mm 2 mps 753 mmHg 97%
    21:00 -29°C° 0 mm 2 mps 753 mmHg 97%
    22:00 -30°C° 0 mm 2 mps 754 mmHg 97%
    23:00 -28°C° 0 mm 1 mps 754 mmHg 98%
    Mostrar más